| time (UTC) | temp F | wind direction | speed MPH | gust MPH | rain 1hr in | rain 24hr in | rain mn in | humidity % | barometer mb |
| 20260506210638 | 84 | 126 | 2.0 | 2.0 | 0.00 | 0.02 | 0.02 | 85 | 1012.8 |
| 20260506210134 | 85 | 141 | 1.0 | 1.0 | 0.00 | 0.02 | 0.02 | 83 | 1012.7 |
| 20260506205631 | 84 | 208 | 0.0 | 0.0 | 0.00 | 0.02 | 0.02 | 85 | 1012.7 |
| 20260506205126 | 84 | 127 | 1.0 | 1.0 | 0.00 | 0.02 | 0.02 | 86 | 1012.7 |
| 20260506204625 | 84 | 190 | 0.0 | 0.0 | 0.00 | 0.02 | 0.02 | 85 | 1013.0 |
| 20260506204121 | 84 | 119 | 1.0 | 1.0 | 0.00 | 0.02 | 0.02 | 86 | 1012.9 |
| 20260506203620 | 83 | 178 | 1.0 | 1.0 | 0.00 | 0.02 | 0.02 | 87 | 1013.0 |
| 20260506203116 | 83 | 161 | 0.0 | 0.0 | 0.00 | 0.02 | 0.02 | 88 | 1013.0 |
| 20260506202614 | 82 | 155 | 0.0 | 0.0 | 0.00 | 0.02 | 0.02 | 88 | 1013.1 |
| 20260506202110 | 82 | 149 | 0.0 | 0.0 | 0.00 | 0.02 | 0.02 | 89 | 1013.3 |
| 20260506201607 | 82 | 157 | 0.0 | 1.0 | 0.00 | 0.02 | 0.02 | 90 | 1013.2 |
| 20260506201104 | 81 | 164 | 1.0 | 1.0 | 0.00 | 0.02 | 0.02 | 90 | 1013.2 |
| 20260506200600 | 81 | 181 | 0.0 | 0.0 | 0.00 | 0.02 | 0.02 | 91 | 1013.4 |
| 20260506200057 | 81 | 159 | 0.0 | 0.0 | 0.00 | 0.02 | 0.02 | 91 | 1013.5 |
| 20260506195554 | 80 | 157 | 0.0 | 0.0 | 0.00 | 0.02 | 0.02 | 90 | 1013.2 |
| 20260506195050 | 80 | 156 | 0.0 | 0.0 | 0.00 | 0.02 | 0.02 | 90 | 1013.4 |
| 20260506194548 | 80 | 170 | 1.0 | 1.0 | 0.00 | 0.02 | 0.02 | 90 | 1013.4 |
| 20260506194044 | 80 | 151 | 0.0 | 0.0 | 0.00 | 0.02 | 0.02 | 90 | 1013.4 |
| 20260506193541 | 80 | 119 | 1.0 | 1.0 | 0.00 | 0.02 | 0.02 | 90 | 1013.4 |
| 20260506193038 | 80 | 165 | 0.0 | 0.0 | 0.00 | 0.02 | 0.02 | 91 | 1013.4 |
| 20260506192535 | 80 | 158 | 1.0 | 2.0 | 0.00 | 0.02 | 0.02 | 90 | 1013.6 |
| 20260506192030 | 81 | 127 | 2.0 | 2.0 | 0.00 | 0.02 | 0.02 | 90 | 1013.4 |
| 20260506191528 | 82 | 139 | 0.0 | 0.0 | 0.00 | 0.02 | 0.02 | 89 | 1013.6 |
| 20260506191024 | 82 | 116 | 2.0 | 2.0 | 0.00 | 0.02 | 0.02 | 89 | 1013.6 |
| 20260506190521 | 82 | 138 | 0.0 | 0.0 | 0.00 | 0.02 | 0.02 | 89 | 1013.5 |
| 20260506190019 | 81 | 236 | 1.0 | 2.0 | 0.00 | 0.02 | 0.02 | 88 | 1013.5 |
| 20260506185515 | 81 | 241 | 1.0 | 2.0 | 0.00 | 0.02 | 0.02 | 89 | 1013.7 |
| 20260506185011 | 81 | 217 | 0.0 | 1.0 | 0.00 | 0.02 | 0.02 | 90 | 1013.8 |
| 20260506184509 | 81 | 93 | 1.0 | 1.0 | 0.00 | 0.02 | 0.02 | 92 | 1013.8 |
| 20260506184006 | 80 | 206 | 2.0 | 2.0 | 0.00 | 0.02 | 0.02 | 93 | 1013.8 |
| 20260506183501 | 80 | 139 | 2.0 | 2.0 | 0.00 | 0.02 | 0.02 | 96 | 1014.0 |
| 20260506182959 | 80 | 147 | 2.0 | 2.0 | 0.00 | 0.02 | 0.02 | 95 | 1014.2 |
| 20260506182456 | 80 | 148 | 0.0 | 0.0 | 0.00 | 0.02 | 0.02 | 97 | 1014.3 |
| 20260506181954 | 80 | 154 | 1.0 | 1.0 | 0.00 | 0.02 | 0.02 | 96 | 1014.4 |
| 20260506181451 | 79 | 163 | 0.0 | 0.0 | 0.00 | 0.02 | 0.02 | 96 | 1014.8 |
| 20260506180947 | 80 | 163 | 1.0 | 1.0 | 0.00 | 0.02 | 0.02 | 95 | 1014.8 |
| 20260506180444 | 79 | 163 | 0.0 | 0.0 | 0.07 | 0.02 | 0.02 | 95 | 1014.8 |
| 20260506175941 | 80 | 163 | 0.0 | 0.0 | 0.12 | 0.02 | 0.02 | 94 | 1014.9 |
| 20260506175437 | 79 | 163 | 0.0 | 0.0 | 0.05 | 0.01 | 0.01 | 93 | 1015.2 |
| 20260506174928 | 80 | 164 | 0.0 | 0.0 | 0.00 | 0.00 | 0.00 | 92 | 1015.2 |
| 20260506174426 | 80 | 163 | 0.0 | 0.0 | 0.00 | 0.00 | 0.00 | 91 | 1015.3 |
| 20260506173918 | 80 | 163 | 0.0 | 0.0 | 0.00 | 0.00 | 0.00 | 90 | 1015.4 |
| 20260506173414 | 80 | 163 | 0.0 | 0.0 | 0.00 | 0.00 | 0.00 | 89 | 1015.4 |
| 20260506172912 | 80 | 163 | 0.0 | 0.0 | 0.00 | 0.00 | 0.00 | 89 | 1015.4 |
| 20260506172408 | 81 | 164 | 0.0 | 0.0 | 0.00 | 0.00 | 0.00 | 88 | 1015.3 |
| 20260506171905 | 81 | 164 | 0.0 | 0.0 | 0.00 | 0.00 | 0.00 | 87 | 1015.5 |
| 20260506171402 | 81 | 164 | 0.0 | 0.0 | 0.00 | 0.00 | 0.00 | 86 | 1015.7 |
| 20260506170900 | 82 | 164 | 0.0 | 1.0 | 0.00 | 0.00 | 0.00 | 86 | 1015.7 |
| 20260506170355 | 82 | 178 | 0.0 | 1.0 | 0.00 | 0.00 | 0.00 | 85 | 1015.4 |
| 20260506165850 | 82 | 173 | 2.0 | 2.0 | 0.00 | 0.00 | 0.00 | 85 | 1015.7 |
| 20260506165347 | 82 | 183 | 3.0 | 3.0 | 0.00 | 0.00 | 0.00 | 85 | 1015.4 |
| 20260506164843 | 83 | 172 | 1.0 | 1.0 | 0.00 | 0.00 | 0.00 | 84 | 1015.5 |
| 20260506164340 | 83 | 158 | 0.0 | 0.0 | 0.00 | 0.00 | 0.00 | 84 | 1015.3 |
| 20260506163838 | 83 | 177 | 2.0 | 2.0 | 0.00 | 0.00 | 0.00 | 84 | 1015.4 |
| 20260506163332 | 83 | 175 | 1.0 | 1.0 | 0.00 | 0.00 | 0.00 | 84 | 1015.0 |
| 20260506162828 | 82 | 172 | 2.0 | 2.0 | 0.00 | 0.00 | 0.00 | 84 | 1015.1 |
| 20260506162325 | 83 | 180 | 2.0 | 2.0 | 0.00 | 0.00 | 0.00 | 83 | 1014.9 |
| 20260506161822 | 83 | 180 | 3.0 | 3.0 | 0.00 | 0.00 | 0.00 | 84 | 1014.8 |
| 20260506161320 | 83 | 185 | 1.0 | 2.0 | 0.00 | 0.00 | 0.00 | 85 | 1014.9 |
| 20260506160812 | 82 | 122 | 3.0 | 5.0 | 0.00 | 0.00 | 0.00 | 86 | 1014.8 |
| 20260506160308 | 81 | 119 | 2.0 | 3.0 | 0.00 | 0.00 | 0.00 | 87 | 1014.6 |
| 20260506155807 | 81 | 155 | 3.0 | 5.0 | 0.00 | 0.00 | 0.00 | 87 | 1014.8 |
| 20260506155306 | 81 | 164 | 2.0 | 3.0 | 0.00 | 0.00 | 0.00 | 88 | 1014.9 |
| 20260506153415 | 80 | 117 | 1.0 | 2.0 | 0.00 | 0.00 | 0.00 | 90 | 1014.6 |
| 20260506152913 | 80 | 156 | 1.0 | 2.0 | 0.00 | 0.00 | 0.00 | 90 | 1014.8 |
| 20260506152409 | 79 | 178 | 0.0 | 1.0 | 0.00 | 0.00 | 0.00 | 92 | 1014.9 |
| 20260506151908 | 79 | 205 | 3.0 | 5.0 | 0.00 | 0.00 | 0.00 | 92 | 1015.0 |
| 20260506151404 | 78 | 177 | 0.0 | 0.0 | 0.00 | 0.00 | 0.00 | 93 | 1015.0 |
| 20260506150902 | 78 | 146 | 3.0 | 3.0 | 0.00 | 0.00 | 0.00 | 93 | 1014.8 |
| 20260506150358 | 78 | 187 | 0.0 | 1.0 | 0.00 | 0.00 | 0.00 | 93 | 1014.8 |
| 20260506145855 | 78 | 193 | 0.0 | 1.0 | 0.00 | 0.00 | 0.00 | 93 | 1014.6 |
| 20260506145351 | 78 | 162 | 1.0 | 1.0 | 0.00 | 0.00 | 0.00 | 93 | 1014.6 |
| 20260506144849 | 78 | 112 | 2.0 | 2.0 | 0.00 | 0.00 | 0.00 | 93 | 1014.5 |
| 20260506144345 | 78 | 186 | 1.0 | 1.0 | 0.00 | 0.00 | 0.00 | 94 | 1014.4 |
| 20260506143844 | 78 | 111 | 1.0 | 3.0 | 0.00 | 0.00 | 0.00 | 94 | 1014.3 |
| 20260506143340 | 78 | 194 | 1.0 | 1.0 | 0.00 | 0.00 | 0.00 | 94 | 1014.4 |
| 20260506142839 | 78 | 146 | 0.0 | 0.0 | 0.00 | 0.00 | 0.00 | 95 | 1014.3 |
| 20260506142336 | 78 | 180 | 2.0 | 3.0 | 0.00 | 0.00 | 0.00 | 95 | 1014.4 |
| 20260506141834 | 77 | 212 | 1.0 | 1.0 | 0.00 | 0.00 | 0.00 | 95 | 1014.5 |
| 20260506141332 | 77 | 174 | 2.0 | 2.0 | 0.00 | 0.00 | 0.00 | 96 | 1014.3 |
| 20260506140830 | 77 | 66 | 2.0 | 3.0 | 0.00 | 0.00 | 0.00 | 96 | 1014.3 |
| 20260506140327 | 77 | 174 | 2.0 | 3.0 | 0.00 | 0.00 | 0.00 | 96 | 1014.1 |
| 20260506135824 | 77 | 178 | 1.0 | 1.0 | 0.00 | 0.00 | 0.00 | 97 | 1014.1 |
| 20260506135320 | 76 | 165 | 1.0 | 1.0 | 0.00 | 0.00 | 0.00 | 97 | 1014.3 |
| 20260506134817 | 76 | 190 | 1.0 | 1.0 | 0.00 | 0.00 | 0.00 | 97 | 1014.6 |
| 20260506134313 | 76 | 142 | 3.0 | 3.0 | 0.00 | 0.00 | 0.00 | 98 | 1014.3 |
| 20260506133810 | 76 | 166 | 0.0 | 0.0 | 0.00 | 0.00 | 0.00 | 98 | 1014.4 |
| 20260506133307 | 76 | 162 | 2.0 | 2.0 | 0.00 | 0.00 | 0.00 | 98 | 1014.5 |
| 20260506132804 | 76 | 177 | 0.0 | 0.0 | 0.00 | 0.00 | 0.00 | 98 | 1014.4 |
| 20260506132301 | 75 | 171 | 0.0 | 1.0 | 0.00 | 0.00 | 0.00 | 98 | 1014.4 |
| 20260506131759 | 75 | 154 | 1.0 | 1.0 | 0.00 | 0.00 | 0.00 | 98 | 1014.6 |
| 20260506131254 | 75 | 153 | 1.0 | 2.0 | 0.00 | 0.00 | 0.00 | 98 | 1014.6 |
| 20260506130752 | 75 | 178 | 0.0 | 1.0 | 0.00 | 0.00 | 0.00 | 99 | 1014.6 |
| 20260506130248 | 75 | 178 | 0.0 | 0.0 | 0.00 | 0.00 | 0.00 | 99 | 1014.5 |
| 20260506125747 | 75 | 176 | 1.0 | 1.0 | 0.00 | 0.00 | 0.00 | 99 | 1014.4 |
| 20260506125244 | 75 | 171 | 0.0 | 0.0 | 0.00 | 0.00 | 0.00 | 99 | 1014.4 |
| 20260506124742 | 75 | 173 | 0.0 | 0.0 | 0.00 | 0.00 | 0.00 | 99 | 1014.2 |
| 20260506124240 | 75 | 173 | 0.0 | 0.0 | 0.00 | 0.00 | 0.00 | 99 | 1014.3 |
| 20260506123737 | 75 | 173 | 0.0 | 0.0 | 0.00 | 0.00 | 0.00 | 99 | 1014.3 |
| 20260506123236 | 75 | 173 | 0.0 | 0.0 | 0.00 | 0.00 | 0.00 | 99 | 1014.2 |
| 20260506122732 | 75 | 173 | 1.0 | 1.0 | 0.00 | 0.00 | 0.00 | 99 | 1014.1 |
| 20260506122229 | 75 | 174 | 0.0 | 0.0 | 0.00 | 0.00 | 0.00 | 99 | 1014.2 |
| 20260506121728 | 75 | 174 | 0.0 | 0.0 | 0.00 | 0.00 | 0.00 | 99 | 1014.2 |
| 20260506121224 | 74 | 173 | 0.0 | 0.0 | 0.00 | 0.00 | 0.00 | 99 | 1014.0 |
| 20260506120722 | 74 | 174 | 0.0 | 0.0 | 0.00 | 0.00 | 0.00 | 99 | 1014.1 |
| 20260506120219 | 74 | 182 | 0.0 | 0.0 | 0.00 | 0.00 | 0.00 | 99 | 1013.9 |
| 20260506115717 | 74 | 184 | 1.0 | 2.0 | 0.00 | 0.00 | 0.00 | 98 | 1014.0 |
| 20260506115215 | 74 | 193 | 0.0 | 0.0 | 0.00 | 0.00 | 0.00 | 98 | 1013.8 |
| 20260506114712 | 74 | 205 | 0.0 | 0.0 | 0.00 | 0.00 | 0.00 | 98 | 1013.8 |
| 20260506114209 | 74 | 187 | 0.0 | 0.0 | 0.00 | 0.00 | 0.00 | 98 | 1013.5 |
| 20260506113708 | 74 | 177 | 0.0 | 0.0 | 0.00 | 0.00 | 0.00 | 98 | 1013.6 |
| 20260506113205 | 74 | 177 | 1.0 | 1.0 | 0.00 | 0.00 | 0.00 | 98 | 1013.7 |
| 20260506112701 | 74 | 188 | 0.0 | 0.0 | 0.00 | 0.00 | 0.00 | 98 | 1013.4 |
| 20260506112159 | 74 | 188 | 0.0 | 0.0 | 0.00 | 0.00 | 0.00 | 98 | 1013.4 |
| 20260506111656 | 74 | 180 | 0.0 | 0.0 | 0.00 | 0.00 | 0.00 | 97 | 1013.5 |
| 20260506111154 | 74 | 183 | 0.0 | 0.0 | 0.00 | 0.00 | 0.00 | 97 | 1013.4 |
| 20260506110651 | 74 | 183 | 0.0 | 0.0 | 0.00 | 0.00 | 0.00 | 97 | 1013.2 |
| 20260506110148 | 74 | 183 | 0.0 | 0.0 | 0.00 | 0.00 | 0.00 | 97 | 1013.4 |
| 20260506105644 | 74 | 195 | 0.0 | 0.0 | 0.00 | 0.00 | 0.00 | 97 | 1013.3 |
| 20260506105141 | 75 | 182 | 0.0 | 0.0 | 0.00 | 0.00 | 0.00 | 97 | 1013.1 |
| 20260506104640 | 75 | 179 | 1.0 | 1.0 | 0.00 | 0.00 | 0.00 | 97 | 1013.0 |
| 20260506104137 | 75 | 108 | 2.0 | 2.0 | 0.00 | 0.00 | 0.00 | 97 | 1013.1 |
| 20260506103634 | 75 | 165 | 1.0 | 1.0 | 0.00 | 0.00 | 0.00 | 97 | 1013.2 |
| 20260506103131 | 75 | 158 | 3.0 | 5.0 | 0.00 | 0.00 | 0.00 | 97 | 1013.0 |
| 20260506102629 | 75 | 180 | 0.0 | 0.0 | 0.00 | 0.00 | 0.00 | 96 | 1013.1 |
| 20260506102126 | 75 | 189 | 1.0 | 2.0 | 0.00 | 0.00 | 0.00 | 96 | 1013.2 |
| 20260506101623 | 75 | 188 | 1.0 | 2.0 | 0.00 | 0.00 | 0.00 | 96 | 1013.1 |
| 20260506101120 | 75 | 193 | 1.0 | 1.0 | 0.00 | 0.00 | 0.00 | 96 | 1013.2 |
| 20260506100618 | 75 | 176 | 1.0 | 1.0 | 0.00 | 0.00 | 0.00 | 97 | 1013.0 |
| 20260506100116 | 75 | 284 | 2.0 | 2.0 | 0.00 | 0.00 | 0.00 | 97 | 1013.1 |
| 20260506095615 | 75 | 167 | 1.0 | 1.0 | 0.00 | 0.00 | 0.00 | 96 | 1013.1 |
| 20260506095111 | 75 | 193 | 1.0 | 1.0 | 0.00 | 0.00 | 0.00 | 96 | 1012.8 |
| 20260506094608 | 75 | 90 | 0.0 | 0.0 | 0.00 | 0.00 | 0.00 | 96 | 1013.0 |
| 20260506094106 | 75 | 156 | 2.0 | 2.0 | 0.00 | 0.00 | 0.00 | 97 | 1013.0 |
| 20260506093604 | 75 | 194 | 2.0 | 2.0 | 0.00 | 0.00 | 0.00 | 97 | 1012.8 |
| 20260506093101 | 75 | 236 | 1.0 | 2.0 | 0.00 | 0.00 | 0.00 | 97 | 1012.6 |
| 20260506092559 | 75 | 152 | 6.0 | 7.0 | 0.00 | 0.00 | 0.00 | 97 | 1012.7 |
| 20260506092055 | 75 | 129 | 1.0 | 1.0 | 0.00 | 0.00 | 0.00 | 97 | 1012.5 |
| 20260506091554 | 75 | 169 | 0.0 | 1.0 | 0.00 | 0.00 | 0.00 | 97 | 1012.5 |
| 20260506091051 | 75 | 142 | 1.0 | 2.0 | 0.00 | 0.00 | 0.00 | 97 | 1012.6 |
| 20260506090549 | 75 | 191 | 0.0 | 1.0 | 0.00 | 0.00 | 0.00 | 97 | 1012.7 |
| 20260506090045 | 75 | 162 | 1.0 | 1.0 | 0.00 | 0.00 | 0.00 | 97 | 1012.7 |
| 20260506085542 | 75 | 161 | 3.0 | 5.0 | 0.00 | 0.00 | 0.00 | 97 | 1013.0 |
| 20260506085038 | 75 | 178 | 1.0 | 2.0 | 0.00 | 0.00 | 0.00 | 97 | 1012.8 |
| 20260506084535 | 75 | 165 | 1.0 | 2.0 | 0.00 | 0.00 | 0.00 | 97 | 1012.7 |
| 20260506084031 | 75 | 175 | 3.0 | 3.0 | 0.00 | 0.00 | 0.00 | 97 | 1012.9 |
| 20260506083529 | 75 | 156 | 3.0 | 5.0 | 0.00 | 0.00 | 0.00 | 97 | 1012.7 |
| 20260506083026 | 75 | 144 | 3.0 | 3.0 | 0.00 | 0.00 | 0.00 | 97 | 1012.8 |
| 20260506082523 | 75 | 136 | 6.0 | 8.0 | 0.00 | 0.00 | 0.00 | 97 | 1012.7 |
| 20260506082018 | 75 | 152 | 1.0 | 1.0 | 0.00 | 0.00 | 0.00 | 97 | 1012.5 |
| 20260506081517 | 75 | 123 | 1.0 | 1.0 | 0.00 | 0.00 | 0.00 | 97 | 1012.5 |
| 20260506081014 | 75 | 146 | 2.0 | 5.0 | 0.00 | 0.00 | 0.00 | 97 | 1012.5 |
| 20260506080511 | 75 | 161 | 3.0 | 5.0 | 0.00 | 0.00 | 0.00 | 97 | 1012.5 |
| 20260506073455 | 75 | 177 | 2.0 | 2.0 | 0.00 | 0.00 | 0.00 | 96 | 1012.5 |
| 20260506072952 | 75 | 244 | 1.0 | 1.0 | 0.00 | 0.00 | 0.00 | 96 | 1013.0 |
| 20260506072449 | 75 | 163 | 1.0 | 2.0 | 0.00 | 0.00 | 0.00 | 96 | 1012.8 |
| 20260506071947 | 75 | 183 | 0.0 | 0.0 | 0.00 | 0.00 | 0.00 | 96 | 1013.2 |
| 20260506071444 | 75 | 189 | 2.0 | 3.0 | 0.00 | 0.00 | 0.00 | 96 | 1013.2 |
| 20260506070941 | 75 | 181 | 0.0 | 1.0 | 0.00 | 0.00 | 0.00 | 96 | 1013.4 |
| 20260506070438 | 75 | 159 | 3.0 | 3.0 | 0.00 | 0.00 | 0.00 | 96 | 1013.5 |
| 20260506062416 | 75 | 164 | 2.0 | 2.0 | 0.00 | 0.00 | 0.00 | 96 | 1013.3 |
| 20260506061911 | 75 | 186 | 1.0 | 1.0 | 0.00 | 0.00 | 0.00 | 95 | 1013.4 |
| 20260506061408 | 76 | 119 | 2.0 | 3.0 | 0.00 | 0.00 | 0.00 | 95 | 1013.3 |
| 20260506060906 | 76 | 180 | 3.0 | 3.0 | 0.00 | 0.00 | 0.00 | 95 | 1013.1 |
| 20260506060404 | 76 | 171 | 2.0 | 2.0 | 0.00 | 0.00 | 0.00 | 95 | 1013.4 |
| 20260506051336 | 76 | 195 | 1.0 | 1.0 | 0.00 | 0.00 | 0.00 | 95 | 1013.3 |
| 20260506050833 | 76 | 181 | 1.0 | 2.0 | 0.00 | 0.00 | 0.00 | 96 | 1013.2 |
| 20260506050330 | 76 | 194 | 1.0 | 2.0 | 0.00 | 0.00 | 0.00 | 96 | 1013.1 |
| 20260506044821 | 75 | 139 | 2.0 | 5.0 | 0.00 | 0.00 | 0.00 | 96 | 1013.3 |
| 20260506044319 | 75 | 165 | 2.0 | 2.0 | 0.00 | 0.00 | 0.00 | 96 | 1013.0 |
| 20260506043816 | 75 | 148 | 2.0 | 3.0 | 0.00 | 0.00 | 0.00 | 96 | 1013.1 |
| 20260506043313 | 75 | 115 | 3.0 | 5.0 | 0.00 | 0.00 | 0.00 | 96 | 1012.9 |
| 20260506042812 | 75 | 163 | 3.0 | 5.0 | 0.00 | 0.00 | 0.00 | 96 | 1012.9 |
| 20260506042310 | 75 | 154 | 3.0 | 3.0 | 0.00 | 0.00 | 0.00 | 95 | 1013.0 |
| 20260506041809 | 75 | 167 | 1.0 | 2.0 | 0.00 | 0.00 | 0.00 | 95 | 1012.8 |
| 20260506041305 | 76 | 145 | 2.0 | 2.0 | 0.00 | 0.00 | 0.00 | 95 | 1012.8 |
| 20260506040802 | 76 | 154 | 2.0 | 3.0 | 0.00 | 0.00 | 0.00 | 95 | 1012.8 |
| 20260506040259 | 76 | 142 | 3.0 | 5.0 | 0.00 | 0.00 | 0.00 | 95 | 1012.8 |
| 20260506035756 | 76 | 196 | 2.0 | 3.0 | 0.00 | 0.00 | 0.00 | 95 | 1013.0 |
| 20260506035253 | 76 | 180 | 3.0 | 6.0 | 0.00 | 0.00 | 0.00 | 94 | 1012.9 |
| 20260506034750 | 76 | 162 | 4.0 | 5.0 | 0.00 | 0.00 | 0.00 | 94 | 1012.8 |
| 20260506034247 | 76 | 159 | 5.0 | 6.0 | 0.00 | 0.00 | 0.00 | 94 | 1012.8 |
| 20260506033744 | 76 | 100 | 5.0 | 7.0 | 0.00 | 0.00 | 0.00 | 94 | 1012.8 |
| 20260506033241 | 76 | 175 | 1.0 | 1.0 | 0.00 | 0.00 | 0.00 | 94 | 1012.7 |
| 20260506032738 | 76 | 123 | 3.0 | 5.0 | 0.00 | 0.00 | 0.00 | 94 | 1012.8 |
| 20260506032235 | 76 | 106 | 2.0 | 2.0 | 0.00 | 0.00 | 0.00 | 94 | 1012.8 |
| 20260506031731 | 76 | 172 | 4.0 | 7.0 | 0.00 | 0.00 | 0.00 | 94 | 1012.6 |
| 20260506031230 | 76 | 151 | 4.0 | 5.0 | 0.00 | 0.00 | 0.00 | 94 | 1012.5 |
| 20260506030727 | 76 | 143 | 3.0 | 3.0 | 0.00 | 0.00 | 0.00 | 94 | 1012.6 |
| 20260506030225 | 76 | 156 | 1.0 | 1.0 | 0.00 | 0.00 | 0.00 | 94 | 1012.3 |
| 20260506025721 | 76 | 161 | 2.0 | 2.0 | 0.00 | 0.00 | 0.00 | 94 | 1012.6 |
| 20260506025217 | 76 | 188 | 1.0 | 1.0 | 0.00 | 0.00 | 0.00 | 94 | 1012.5 |
| 20260506024715 | 76 | 183 | 2.0 | 2.0 | 0.00 | 0.00 | 0.00 | 94 | 1012.6 |
| 20260506024211 | 76 | 193 | 1.0 | 2.0 | 0.00 | 0.00 | 0.00 | 94 | 1012.6 |
| 20260506023707 | 76 | 182 | 1.0 | 2.0 | 0.00 | 0.00 | 0.00 | 94 | 1012.7 |
| 20260506023205 | 76 | 164 | 0.0 | 0.0 | 0.00 | 0.00 | 0.00 | 94 | 1012.5 |
| 20260506022702 | 76 | 146 | 1.0 | 1.0 | 0.00 | 0.00 | 0.00 | 94 | 1012.2 |
| 20260506022159 | 76 | 129 | 2.0 | 2.0 | 0.00 | 0.00 | 0.00 | 94 | 1012.1 |
| 20260506021657 | 76 | 158 | 0.0 | 1.0 | 0.00 | 0.00 | 0.00 | 94 | 1011.9 |
| 20260506021154 | 76 | 139 | 2.0 | 2.0 | 0.00 | 0.00 | 0.00 | 94 | 1011.9 |
| 20260506020651 | 76 | 181 | 3.0 | 3.0 | 0.00 | 0.00 | 0.00 | 94 | 1011.7 |
| 20260506020148 | 76 | 160 | 1.0 | 1.0 | 0.00 | 0.00 | 0.00 | 94 | 1011.6 |
| 20260506015646 | 76 | 129 | 4.0 | 6.0 | 0.00 | 0.00 | 0.00 | 94 | 1011.7 |
| 20260506015143 | 76 | 140 | 1.0 | 2.0 | 0.00 | 0.00 | 0.00 | 94 | 1011.5 |
| 20260506014641 | 77 | 174 | 1.0 | 3.0 | 0.00 | 0.00 | 0.00 | 93 | 1011.4 |
| 20260506014136 | 77 | 200 | 3.0 | 3.0 | 0.00 | 0.00 | 0.00 | 93 | 1011.4 |
| 20260506013634 | 77 | 189 | 1.0 | 2.0 | 0.00 | 0.00 | 0.00 | 93 | 1011.3 |
| 20260506013131 | 77 | 89 | 4.0 | 5.0 | 0.00 | 0.00 | 0.00 | 92 | 1011.2 |
| 20260506012627 | 77 | 186 | 1.0 | 2.0 | 0.00 | 0.00 | 0.00 | 92 | 1011.3 |
| 20260506012124 | 77 | 99 | 4.0 | 6.0 | 0.00 | 0.00 | 0.00 | 92 | 1011.1 |
| 20260506011622 | 77 | 149 | 1.0 | 1.0 | 0.00 | 0.00 | 0.00 | 92 | 1011.1 |
| 20260506011118 | 77 | 164 | 1.0 | 1.0 | 0.00 | 0.00 | 0.00 | 91 | 1010.8 |
| 20260506010611 | 78 | 205 | 3.0 | 5.0 | 0.00 | 0.00 | 0.00 | 91 | 1010.9 |
| 20260506005600 | 78 | 173 | 1.0 | 1.0 | 0.00 | 0.00 | 0.00 | 91 | 1010.7 |
| 20260506005056 | 78 | 174 | 1.0 | 2.0 | 0.00 | 0.00 | 0.00 | 90 | 1010.8 |
| 20260506004553 | 78 | 159 | 6.0 | 8.0 | 0.00 | 0.00 | 0.00 | 90 | 1010.9 |
| 20260506004049 | 79 | 83 | 3.0 | 5.0 | 0.00 | 0.00 | 0.00 | 90 | 1010.8 |
| 20260506003545 | 79 | 165 | 4.0 | 5.0 | 0.00 | 0.00 | 0.00 | 90 | 1010.9 |
| 20260506003042 | 79 | 127 | 1.0 | 2.0 | 0.00 | 0.00 | 0.00 | 89 | 1011.0 |
| 20260506002537 | 80 | 149 | 3.0 | 3.0 | 0.00 | 0.00 | 0.00 | 89 | 1010.7 |
| 20260506002034 | 80 | 160 | 1.0 | 1.0 | 0.00 | 0.00 | 0.00 | 88 | 1010.8 |
| 20260506001531 | 80 | 182 | 0.0 | 0.0 | 0.00 | 0.00 | 0.00 | 87 | 1010.7 |
| 20260506001028 | 80 | 180 | 2.0 | 2.0 | 0.00 | 0.00 | 0.00 | 87 | 1010.7 |
| 20260506000525 | 80 | 157 | 2.0 | 2.0 | 0.00 | 0.00 | 0.00 | 86 | 1010.6 |
| 20260506000023 | 80 | 128 | 3.0 | 5.0 | 0.00 | 0.00 | 0.00 | 86 | 1010.7 |
| 20260505235520 | 81 | 204 | 1.0 | 2.0 | 0.00 | 0.00 | 0.00 | 86 | 1010.8 |
| 20260505235016 | 81 | 117 | 4.0 | 6.0 | 0.00 | 0.00 | 0.00 | 86 | 1010.8 |
| 20260505234513 | 81 | 161 | 2.0 | 3.0 | 0.00 | 0.00 | 0.00 | 85 | 1010.7 |
| 20260505234010 | 82 | 179 | 1.0 | 1.0 | 0.00 | 0.00 | 0.00 | 84 | 1010.7 |
| 20260505233508 | 82 | 160 | 4.0 | 5.0 | 0.00 | 0.00 | 0.00 | 83 | 1010.6 |
| 20260505233005 | 82 | 111 | 2.0 | 2.0 | 0.00 | 0.00 | 0.00 | 83 | 1010.8 |
| 20260505232503 | 82 | 190 | 2.0 | 2.0 | 0.00 | 0.00 | 0.00 | 82 | 1010.8 |
| 20260505232000 | 82 | 130 | 2.0 | 2.0 | 0.00 | 0.00 | 0.00 | 82 | 1010.6 |
| 20260505231457 | 82 | 163 | 2.0 | 3.0 | 0.00 | 0.00 | 0.00 | 82 | 1010.8 |
| 20260505230955 | 82 | 195 | 3.0 | 5.0 | 0.00 | 0.00 | 0.00 | 83 | 1010.7 |
| 20260505230452 | 82 | 154 | 6.0 | 9.0 | 0.00 | 0.00 | 0.00 | 82 | 1010.7 |
| 20260505225948 | 82 | 152 | 1.0 | 2.0 | 0.00 | 0.00 | 0.00 | 83 | 1010.8 |
| 20260505225446 | 82 | 179 | 3.0 | 5.0 | 0.00 | 0.00 | 0.00 | 83 | 1010.6 |
| 20260505224942 | 83 | 167 | 5.0 | 7.0 | 0.00 | 0.00 | 0.00 | 81 | 1010.6 |
| 20260505224439 | 83 | 182 | 2.0 | 2.0 | 0.00 | 0.00 | 0.00 | 81 | 1010.7 |
| 20260505223936 | 83 | 202 | 2.0 | 3.0 | 0.00 | 0.00 | 0.00 | 80 | 1010.6 |
| 20260505223433 | 83 | 165 | 4.0 | 5.0 | 0.00 | 0.00 | 0.00 | 79 | 1010.7 |
| 20260505222929 | 83 | 172 | 5.0 | 8.0 | 0.00 | 0.00 | 0.00 | 80 | 1010.7 |
| 20260505222426 | 84 | 155 | 2.0 | 2.0 | 0.00 | 0.00 | 0.00 | 79 | 1011.1 |
| 20260505221921 | 84 | 233 | 1.0 | 1.0 | 0.00 | 0.00 | 0.00 | 80 | 1010.6 |
| 20260505221419 | 84 | 159 | 2.0 | 2.0 | 0.00 | 0.00 | 0.00 | 79 | 1010.7 |
| 20260505220916 | 83 | 208 | 4.0 | 6.0 | 0.00 | 0.00 | 0.00 | 81 | 1010.8 |
| 20260505220413 | 84 | 190 | 1.0 | 2.0 | 0.00 | 0.00 | 0.00 | 80 | 1010.8 |
| 20260505215911 | 83 | 160 | 5.0 | 6.0 | 0.00 | 0.00 | 0.00 | 79 | 1010.7 |
| 20260505215408 | 83 | 190 | 1.0 | 1.0 | 0.00 | 0.00 | 0.00 | 80 | 1010.8 |
| 20260505214906 | 83 | 107 | 3.0 | 5.0 | 0.00 | 0.00 | 0.00 | 80 | 1010.9 |
| 20260505214403 | 83 | 152 | 1.0 | 1.0 | 0.00 | 0.00 | 0.00 | 80 | 1011.0 |
| 20260505213900 | 83 | 177 | 7.0 | 8.0 | 0.00 | 0.00 | 0.00 | 80 | 1011.0 |
| 20260505213358 | 83 | 159 | 3.0 | 6.0 | 0.00 | 0.00 | 0.00 | 80 | 1011.3 |
| 20260505212854 | 84 | 325 | 2.0 | 3.0 | 0.00 | 0.00 | 0.00 | 78 | 1011.1 |
| 20260505212351 | 85 | 178 | 2.0 | 2.0 | 0.00 | 0.00 | 0.00 | 76 | 1011.0 |
| 20260505211847 | 85 | 164 | 1.0 | 2.0 | 0.00 | 0.00 | 0.00 | 76 | 1011.0 |
| 20260505211345 | 85 | 161 | 7.0 | 9.0 | 0.00 | 0.00 | 0.00 | 75 | 1010.9 |
| 20260505210841 | 85 | 108 | 1.0 | 2.0 | 0.00 | 0.00 | 0.00 | 77 | 1011.2 |